Cloud_Cover
0 3 2 0 0 0 0 0 5 5 5 5 5 5 5 5 5 5 5 5 5 6 87 78 98 100 97 80 5 5 5 5 5 5 8 59 98 42 15 32 34 39 91 100
1 5 5 6 1 3 5 5 5 79 65 5 5 5 5 2 5 5 4 5 6 85 100 100 75 93 100 87 5 5 23 32 86 41 93 99 100 100 73 5 21 47 47 22
5 5 25 100 2 5 5 5 19 76 5 16 22 75 97 36 5 5 10 5 76 100 98 100 100 100 88 37 40 96 93 100 100 100 100 100 79 34 5 11 7 6 9 32
28 5 82 100 64 3 5 5 73 8 5 33 100 100 91 5 5 45 31 54 99 98 59 29 29 64 6 48 58 64 100 100 100 100 100 57 5 5 5 52 99 100 86 5
82 19 53 100 99 5 0 22 5 5 27 100 100 90 60 24 20 94 100 100 100 100 55 5 59 18 88 94 100 100 100 100 100 100 70 18 5 5 11 57 97 100 100 98
65 36 83 100 98 5 5 41 76 100 100 100 90 100 100 96 100 100 100 100 100 100 95 90 100 100 100 100 100 100 100 100 99 59 25 28 22 5 7 5 5 5 65 82
45 81 89 22 9 5 26 63 100 100 100 100 100 100 100 100 100 100 100 100 100 99 100 100 100 100 100 100 100 100 100 78 23 56 98 98 43 5 22 65 88 98 99 78
98 75 15 15 25 89 71 83 100 100 100 100 100 100 100 100 100 100 100 100 100 100 100 100 94 90 96 100 99 92 77 49 5 5 7 100 57 5 17 97 100 90 59 34
28 27 5 21 61 54 20 97 100 100 100 100 100 98 100 100 100 100 100 100 100 100 96 68 68 99 100 84 99 60 37 88 8 5 31 70 67 88 79 73 91 86 81 59
5 5 5 5 5 51 100 100 100 100 73 52 55 96 100 100 100 100 100 100 100 98 99 100 100 100 96 100 100 83 100 86 69 59 36 83 98 79 79 65 46 78 86 94
42 84 98 100 100 100 100 100 100 94 62 96 99 98 98 100 100 100 100 100 100 97 100 100 100 100 99 71 100 84 100 100 100 91 89 68 54 22 23 14 9 97 86 82
100 100 100 100 100 100 100 83 37 44 58 97 100 100 100 100 100 100 100 100 100 100 99 100 100 100 89 100 68 99 100 100 100 100 95 73 61 66 5 6 5 69 92 94
100 86 59 45 36 68 38 21 40 72 100 100 99 100 100 100 100 100 100 100 100 100 100 100 100 100 98 11 5 61 100 100 100 100 97 100 100 97 97 57 5 5 28 96
30 42 66 36 13 59 35 26 92 100 84 99 100 100 100 100 100 100 100 100 100 100 100 91 100 80 8 5 5 75 100 100 100 100 97 85 94 100 100 100 100 97 5 26
74 40 24 21 53 89 100 100 100 100 100 100 100 100 100 100 100 100 100 100 100 100 85 89 99 56 5 5 5 63 100 100 100 100 99 93 48 70 85 80 98 100 90 66
66 68 93 93 100 100 100 100 100 100 100 100 100 100 100 100 100 100 100 100 100 100 97 53 71 59 33 53 16 81 100 100 100 100 100 95 85 86 67 92 99 100 100 97
100 98 100 100 100 100 100 100 100 100 100 100 100 100 100 100 100 100 100 100 100 92 74 88 79 59 8 5 92 100 100 100 97 100 67 95 90 91 61 92 93 82 66 15
100 100 100 100 100 100 100 100 100 100 100 100 100 100 100 100 96 100 98 90 98 100 98 79 42 5 5 12 68 99 99 100 100 100 100 97 99 100 100 90 73 32 88 47
100 100 100 100 100 100 100 100 100 100 100 100 100 100 100 100 89 86 99 100 100 73 44 5 5 5 8 17 55 98 100 100 100 100 100 99 99 100 97 91 84 89 74 76
100 100 100 100 100 100 100 100 100 100 85 93 96 100 100 100 100 100 91 54 9 5 5 5 5 10 5 48 100 100 99 100 100 95 85 100 100 100 100 100 98 100 90 100
100 100 100 100 99 85 80 87 100 100 100 100 100 100 100 100 98 39 91 94 5 28 5 11 6 10 59 67 96 96 100 100 100 100 100 100 100 100 100 100 100 100 100 100
100 100 100 100 94 75 77 88 100 100 100 100 100 100 24 5 5 5 5 44 8 42 77 9 99 100 100 84 74 60 71 96 97 100 100 100 100 100 100 100 100 100 100 100
100 85 74 60 86 100 100 100 100 100 99 38 15 30 64 57 45 85 75 11 97 72 90 93 100 100 86 13 76 89 98 92 80 93 100 100 100 100 98 100 100 100 100 100
99 99 99 100 100 100 100 65 58 8 55 78 91 81 92 98 62 83 82 99 96 100 100 93 100 82 88 71 97 100 100 100 100 100 100 100 100 100 100 100 91 93 99 100
100 83 76 19 22 43 6 5 5 5 5 5 5 28 73 93 100 71 49 85 83 96 100 100 98 80 97 100 100 100 100 100 100 100 100 100 100 100 100 100 100 100 100 100
32 37 9 42 30 5 5 5 15 41 54 68 48 72 96 55 94 86 100 100 100 100 100 100 100 100 94 94 100 100 100 100 100 100 100 100 100 100 100 100 100 100 100 100
46 5 5 5 5 5 5 5 5 5 24 95 99 42 63 99 98 92 98 98 100 100 100 100 100 100 100 100 100 100 100 100 100 100 100 100 100 100 100 100 100 100 100 100